Location: 22
(39.7117°N, 89.5929°W)
Time: 07:30:35
(UTC-05:00)

Hubble Space Telescope - Pass Details

Date: 24 April 2026
Orbit: 473 x 476 km, 28.5° (Epoch: 18 May)

Event Time Altitude Azimuth Distance (km) Brightness Sun altitude
Rises 20:45:44 0° 223° (SW) 2,505 4.4 -11.4°
Reaches altitude 10° 20:49:12 10° 190° (S) 1,630 3.0 -12.0°
Maximum altitude 20:50:32 12° 169° (SSE) 1,534 2.7 -12.3°
Enters shadow 20:50:54 11° 163° (SSE) 1,541 2.7 -12.3°
